Regional Weather Roundup
Issued by NWS San Angelo, TX

Home | Current Version | Previous Version | Text Only | Print | Product List | Glossary On
Versions: 1 2 3 4 5 6 7 8 9 10 11 12 13 14 15 16 17 18 19 20 21 22 23 24 25 26 27 28 29 30 31 32 33 34 35 36 37 38 39 40 41 42 43 44 45 46 47 48 49 50
000
ASUS44 KSJT 272302
RWRSJT
WEST CENTRAL TEXAS REGIONAL WEATHER ROUNDUP
NATIONAL WEATHER SERVICE SAN ANGELO TX
600 PM CDT THU APR 27 2017

NOTE: "FAIR" INDICATES FEW OR NO CLOUDS BELOW 12,000 FEET WITH NO
SIGNIFICANT WEATHER AND/OR OBSTRUCTIONS TO VISIBILITY.

TXZ049-054-064>066-071>073-076>078-098-099-113-114-127-128-139-140-
154-155-168>170-280000
...LOCATIONS ACROSS WEST CENTRAL TEXAS...

CITY           SKY/WX    TMP DP  RH WIND       PRES   REMARKS
SAN ANGELO     SUNNY     88  43  20 S17G26    29.51F
ABILENE        SUNNY     87  41  19 S23G31    29.47F
DYESS AFB      NOT AVBL
JUNCTION       CLOUDY    83  50  31 S17G31    29.59S
SWEETWATER     SUNNY     88  34  14 S25G37    29.51S
BROWNWOOD      NOT AVBL
COLEMAN        CLEAR     86  45  23 S13G22    29.53F
SONORA         CLOUDY    82  48  30 S17G24    29.63F
OZONA            N/A     82  41  23 S24G32    29.61F
BRADY          NOT AVBL
$$

TEXAS PANHANDLE/OKLAHOMA PANHANDLE

CITY           SKY/WX    TMP DP  RH WIND       PRES   REMARKS
AMARILLO       PTSUNNY   76  33  21 W17G30    29.44F
BORGER         PTSUNNY   76  34  21 W28G45    29.43R
CANADIAN       CLOUDY    73  45  37 S25G33    29.41F
DALHART        CLOUDY    70  31  23 W22G37    29.45S
DUMAS          PTCLDY    63  43  47 W12       29.45R
GUYMON         NOT AVBL
HEREFORD       MOCLDY    76  41  28 W9        29.45F
PAMPA          LGT RAIN  69  39  33 S21G35    29.42F
PERRYTON       CLOUDY    69  45  42 S20G30    29.40R
$$

SOUTHERN PANHANDLE/SOUTH PLAINS/ROLLING PLAINS

CITY           SKY/WX    TMP DP  RH WIND       PRES   REMARKS
LUBBOCK        CLOUDY    86  27  11 SW21G33   29.43F
SNYDER         SUNNY    N/A N/A N/A SW23G32   29.46F
CHILDRESS      CLOUDY    76  44  32 NE13G18   29.44F
SEMINOLE       CLEAR     87  31  13 SW22G30   29.50F
$$

PERMIAN BASIN

CITY           SKY/WX    TMP DP  RH WIND       PRES   REMARKS
MIDLAND        SUNNY     93  32  11 SW30G36   29.50F
ODESSA         SUNNY     92  30  11 W23G35    29.51F
WINK           SUNNY     93  31  11 W25G31    29.48F
$$

FAR WEST/SOUTHWEST MOUNTAINS/TRANS PECOS

CITY           SKY/WX    TMP DP  RH WIND       PRES   REMARKS
ALPINE         CLOUDY    88  27  11 W15G31    29.72S
DRYDEN           N/A     92  39  15 SE15G26   29.54F
EL PASO        MOSUNNY   86  32  14 SW30G45   29.58F
FORT STOCKTON  SUNNY     95  30  10 SW16G30   29.53F
GUADALUPE PASS SUNNY     80  31  16 SW48G61   29.63F
MARFA          CLOUDY    85  30  13 W21G28    29.71F
PECOS          CLEAR     93  35  12 W17G23    29.50F
$$

DALLAS/FORT WORTH METROPLEX

CITY           SKY/WX    TMP DP  RH WIND       PRES   REMARKS
DFW AIRPORT    MOSUNNY   76  50  40 S15       29.59F
FTW MEACHAM    SUNNY     78  49  35 S18       29.58F
DAL-EXECUTIVE  SUNNY     74  52  46 SE15G26   29.60F
GRAND PRAIRIE  SUNNY     75  48  38 SE12G23   29.62F
ADDISON        SUNNY     73  48  40 SE20G29   29.62F
MESQUITE       CLEAR     73  48  40 SE15      29.65S
LANCASTER      CLEAR     74  53  47 SE12      29.63F
$$

NORTH CENTRAL TEXAS

CITY           SKY/WX    TMP DP  RH WIND       PRES   REMARKS
SHRMAN/DENISON NOT AVBL
GAINESVILLE    SUNNY     71  47  42 S17G24    29.61F
BRIDGEPORT     CLEAR     75  48  37 S16G23    29.58F
DENTON         SUNNY     75  51  43 S15       29.59F
WAXAHACHIE     CLEAR     74  52  47 SE12      29.63F
GRANBURY       CLEAR     80  47  30 SE17      29.58F
$$

WESTERN NORTH TEXAS

CITY           SKY/WX    TMP DP  RH WIND       PRES   REMARKS
WICHITA FALLS  SUNNY     78  46  32 S23G35    29.49F
VERNON         CLOUDY    80  35  19 SE20      29.46R
BRECKENRIDGE   CLEAR     85  41  21 S21G30    29.49F HAZE
COMANCHE       SUNNY     84  47  27 S17G25    29.56S
$$

CENTRAL AND SOUTH CENTRAL TEXAS

CITY           SKY/WX    TMP DP  RH WIND       PRES   REMARKS
AUSTIN/BERGSTM PTSUNNY   84  51  31 SE14      29.63F
WACO           SUNNY     79  51  37 S18G24    29.60F
HILLSBORO      CLEAR     77  52  40 SE10G18   29.61F
TEMPLE         SUNNY     79  52  38 SE21      29.62F
KILLEEN-GRAY   SUNNY     80  46  29 SE20G29   29.59F
FORT HOOD      SUNNY     82  48  30 S20G25    29.57F
GEORGETOWN     NOT AVBL
LAGO VISTA     FAIR      81  47  30 S12G21    29.64F
SAN MARCOS     SUNNY     82  52  34 S12       29.66F
NEW BRAUNFELS  SUNNY     85  54  34 S13       29.63F
RANDOLPH AFB   SUNNY     86  52  30 S15       29.63F
SAN ANTONIO    PTSUNNY   85  53  33 SE15      29.63F
STINSON        SUNNY     88  55  32 S14       29.61F
PLEASANTON     NOT AVBL
LA GRANGE      MOSUNNY   81  59  46 SE6       29.64F
GIDDINGS       CLOUDY    80  52  37 SE9       29.67F
$$

EAST TEXAS

CITY           SKY/WX    TMP DP  RH WIND       PRES   REMARKS
PARIS          MOSUNNY   72  52  49 SE16      29.65F
CLARKSVILLE    NOT AVBL
TYLER          SUNNY     75  50  41 SE16G22   29.66F
LONGVIEW       SUNNY     74  53  48 SE15G21   29.68F
PALESTINE      CLEAR     77  53  42 SE10G16   29.67F
NACOGDOCHES    SUNNY     75  54  46 SE9G16    29.68F
$$

TEXAS HILL COUNTRY AND EDWARDS PLATEAU

CITY           SKY/WX    TMP DP  RH WIND       PRES   REMARKS
LLANO          NOT AVBL
HORSESHOE BAY  FAIR      84  44  24 S15G21    29.60F
KERRVILLE      MOSUNNY   82  50  33 S15G23    29.65F
FREDERICKSBRG  NOT AVBL
ROCKSPRINGS    PTCLDY    77  54  44 S12G24    29.66F
HONDO          SUNNY     87  54  32 SE12      29.62F
UVALDE         CLEAR     86  56  35 SE8       29.61F
DEL RIO        MOSUNNY   86  53  32 SE17G26   29.55F
$$

SOUTHEAST TEXAS

CITY           SKY/WX    TMP DP  RH WIND       PRES   REMARKS
COLLEGE STN    MOSUNNY   80  52  37 SE15      29.67F
CALDWELL       NOT AVBL
CROCKETT       PTCLDY    77  54  44 S8        29.71F
BRENHAM        MOSUNNY   81  55  41 SE10      29.68F
HUNTSVILLE     CLOUDY    80  49  33 S8        29.69F
CONROE         MOSUNNY   79  49  34 S10       29.70F
HOUSTON BUSH   MOSUNNY   79  54  41 SE12      29.69F
HOUSTON HOBBY  MOSUNNY   77  58  51 E9        29.69F
PERLAND        SUNNY     79  59  50 E8        29.71F
WHARTON        NOT AVBL
$$

THE UPPER TEXAS COAST

CITY           SKY/WX    TMP DP  RH WIND       PRES   REMARKS
ORANGE         CLEAR     80  57  45 E5        29.74S
PORT ARTHUR    SUNNY     81  55  40 E7        29.71F
GALVESTON      SUNNY     75  64  68 E10       29.72F
ANGLETON       SUNNY     78  64  61 VRB7      29.70F
BAY CITY       CLEAR     79  63  58 SE9       29.68F
$$

TEXAS COASTAL BEND, RIO GRANDE PLAINS DEEP SOUTH TEXAS

CITY           SKY/WX    TMP DP  RH WIND       PRES   REMARKS
VICTORIA       SUNNY     79  65  62 E14       29.66F
BEEVILLE       FAIR      84  67  57 SE13      29.64F
ROCKPORT       MOSUNNY   77  65  66 SE14      29.67F
PORT ARANSAS   CLOUDY    75  65  70 E13       29.67S
PORT LAVACA    CLEAR     76  68  76 SE16      29.66F
CORPUS CHRISTI PTSUNNY   79  67  66 SE14      29.66F
KINGSVILLE NAS MOSUNNY   81  70  69 SE17G24   29.64F
COTULLA        SUNNY     93  57  29 S14G25    29.58F
LAREDO         SUNNY     92  65  40 SE20      29.58F
BROWNSVILLE    CLOUDY    83  73  72 E13G22    29.63F
PORT ISABEL    CLOUDY    80  73  79 E16       29.64F
HEBBRONVILLE   NOT AVBL
MCALLEN        MOSUNNY   92  70  48 SE16G23   29.61F
WESLACO        PTSUNNY   87  70  56 SE13      29.61S
FALFURRIAS     CLEAR     87  67  51 E16       29.62S
EDINBURG       CLEAR     89  69  52 E16       29.61F
$$




USA.gov is the U.S. government's official web portal to all federal, state and local government web resources and services.